Fort Stockton, TX

9:46 PM CDT on October 23, 2017 (GMT -0500)
Fort Stockton-Pecos County

Weather History for KFST - August, 2013

Change the Weather History Date:

Monday, August 26, 2013

  Actual Average Record
Temperature  
Mean Temperature 82 °F -  
Max Temperature 91 °F 89 °F 102 °F (2002)
Min Temperature 73 °F 67 °F 64 °F (1997)
Cooling Degree Days 16    
Growing Degree Days 32 (Base 50)    
Moisture  
Dew Point 60 °F    
Average Humidity 50    
Maximum Humidity 76    
Minimum Humidity 31    
Precipitation  
Precipitation 0.00 in - - ()
Sea Level Pressure  
Sea Level Pressure 30.00 in    
Wind  
Wind Speed 8 mph (SE)    
Max Wind Speed 16 mph    
Max Gust Speed 26 mph    
Visibility 10 miles    
Events      
Averages and records for this station are not official NWS values.
T = Trace of Precipitation, MM = Missing Value Source: NWS Daily Summary

Daily Weather History Graph

Daily Weather History Graph

Search for Another Location

Airport or City:

Trip Planner

Search our weather history database for the weather conditions in past years. The results will help you decide how hot, cold, wet, or windy it might be!

Date:

Astronomy

Aug. 26, 2013 Rise Set
Actual Time 7:24 AM CDT 8:21 PM CDT
Civil Twilight 6:59 AM CDT 8:46 PM CDT
Nautical Twilight 6:30 AM CDT 9:15 PM CDT
Astronomical Twilight 6:00 AM CDT 9:45 PM CDT
Moon No Moon Rise 1:01 PM CDT (8/26)
Length of Visible Light 13h 46m
Length of Day
12h 57m
Waning Gibbous, 66% of the Moon is Illuminated
Aug 26
Waning Gibbous
Aug 28
Last Quarter
Sep 5
New
Sep 12
First Quarter
Sep 19
Full

Hourly Weather History & Observations

Time (CDT) Temp. Heat Index Dew Point Humidity Pressure Visibility Wind Dir Wind Speed Gust Speed Precip Events Conditions
12:53 AM 75.9 °F - 57.0 °F 52% 30.01 in 10.0 mi SSE 3.5 mph - N/A   Clear
1:53 AM 73.9 °F - 57.0 °F 55% 30.01 in 10.0 mi ESE 3.5 mph - N/A   Clear
2:53 AM 75.0 °F - 57.0 °F 53% 30.00 in 10.0 mi SE 4.6 mph - N/A   Clear
3:53 AM 75.0 °F - 57.9 °F 55% 30.01 in 10.0 mi SE 5.8 mph - N/A   Clear
4:53 AM 73.9 °F - 59.0 °F 59% 30.01 in 10.0 mi SE 5.8 mph - N/A   Clear
5:53 AM 73.9 °F - 61.0 °F 64% 30.01 in 10.0 mi SE 10.4 mph - N/A   Clear
6:53 AM 73.0 °F - 63.0 °F 71% 30.03 in 10.0 mi SE 9.2 mph - N/A   Clear
7:53 AM 73.0 °F - 64.0 °F 73% 30.04 in 10.0 mi SE 9.2 mph - N/A   Scattered Clouds
8:53 AM 73.9 °F - 66.0 °F 76% 30.06 in 10.0 mi SE 13.8 mph - N/A   Clear
9:53 AM 78.1 °F - 64.9 °F 64% 30.06 in 10.0 mi SE 15.0 mph 20.7 mph N/A   Scattered Clouds
10:53 AM 80.1 °F 81.7 °F 64.0 °F 58% 30.07 in 10.0 mi SSE 11.5 mph - N/A   Partly Cloudy
11:53 AM 82.9 °F 84.0 °F 63.0 °F 51% 30.07 in 10.0 mi SE 11.5 mph - N/A   Scattered Clouds
12:53 PM 84.0 °F 84.0 °F 60.1 °F 44% 30.05 in 10.0 mi East 9.2 mph 19.6 mph N/A   Scattered Clouds
1:53 PM 88.0 °F 86.7 °F 57.0 °F 35% 30.02 in 10.0 mi East 10.4 mph 21.9 mph N/A   Partly Cloudy
2:53 PM 88.0 °F 86.7 °F 57.0 °F 35% 30.00 in 10.0 mi East 16.1 mph 23.0 mph N/A   Mostly Cloudy
3:53 PM 89.1 °F 87.3 °F 55.9 °F 32% 29.97 in 10.0 mi ESE 13.8 mph 21.9 mph N/A   Mostly Cloudy
4:53 PM 90.0 °F 88.1 °F 55.9 °F 31% 29.96 in 10.0 mi SE 11.5 mph 26.5 mph N/A   Partly Cloudy
5:53 PM 90.0 °F 88.1 °F 55.9 °F 31% 29.94 in 10.0 mi ESE 9.2 mph 21.9 mph N/A   Partly Cloudy
6:53 PM 89.1 °F 87.3 °F 55.9 °F 32% 29.93 in 10.0 mi East 13.8 mph - N/A   Mostly Cloudy
7:53 PM 84.9 °F 84.2 °F 57.9 °F 40% 29.94 in 10.0 mi ESE 16.1 mph - N/A   Clear
8:53 PM 84.0 °F 83.0 °F 55.9 °F 38% 29.95 in 10.0 mi ESE 10.4 mph - N/A   Clear
9:53 PM 82.0 °F 82.0 °F 57.9 °F 44% 29.96 in 10.0 mi ESE 10.4 mph - N/A   Partly Cloudy
10:53 PM 79.0 °F - 62.1 °F 56% 29.98 in 10.0 mi SSE 15.0 mph - N/A   Clear
11:53 PM 78.1 °F - 63.0 °F 60% 29.98 in 10.0 mi SE 10.4 mph - N/A   Partly Cloudy